Home > Time Zones > World Clock > Weather > Chad > Sarh > Past weeks

Flag for Chad Weather past 2 weeks in Sarh, Chad

Now
70 °F

Mild.


Feels Like: 70 °F
Forecast: 66 / 92 °F
Wind: 3 mph from Northwest

Location: Sarh Airport

Current Time: Dec 27, 2014 at 12:32:30 AM

Latest Report: Dec 26, 2014 at 11:00 PM


Visibility: N/A

Pressure: 29.95 "Hg

Humidity: 50%

Dew point: 50 °F

Location of SarhLocation

Historic Weather in Sarh — Graph

°F

Sarh temperature yesterday

Maximum temperature yesterday: 93 °F (at 12:00 PM)
Minimum temperature yesterday: 50 °F (at 12:00 AM)
Average temperature yesterday: 74 °F

Past Weeks' High & Low Weather Summary

 TemperatureHumidityPressure
High100 °F (Dec 13, 3:00 PM)100% (Dec 26, 12:00 AM)30.04 "Hg (Dec 26, 12:00 AM)
Low50 °F (Dec 26, 12:00 AM)11% (Dec 20, 3:00 PM)29.80 "Hg (Dec 12, 3:00 PM)
Average79 °F42%29.91 "Hg
* Reported Dec 11 11:00 PM — Dec 26 11:00 PM, Sarh, Weather by CustomWeather, © 2014

Note: Actual official high and low records may vary slightly from our data, if they occured in-between our weather recording intervals... More about our weather records

Advertising

Sarh weather history for previous 24 hours

 ConditionsComfort  
Time TempWeatherWind HumidityBarometerVisibility
11:00 PM
Dec 26
70 °FMild.3 mph50%29.95 "HgN/A
10:00 PM70 °FMild.No wind53%29.95 "HgN/A
9:00 PM70 °FMild.No wind53%29.95 "HgN/A
8:00 PM75 °FMild.No wind47%29.92 "HgN/A
7:00 PM79 °FPleasantly warm.No wind32%29.89 "HgN/A
6:00 PM82 °FClear.No wind32%29.86 "Hg10 mi
5:00 PM88 °FSunny.3 mph27%29.89 "Hg10 mi
4:00 PM91 °FSunny.7 mph18%29.92 "Hg10 mi
3:00 PM91 °FSunny.5 mph23%29.92 "Hg10 mi
2:00 PM90 °FSunny.No wind18%29.95 "Hg10 mi
1:00 PM90 °FSunny.6 mph20%29.95 "Hg10 mi
12:00 PM93 °FExtremely hot.7 mph16%29.95 "HgN/A
11:00 AM82 °FPleasantly warm.7 mph23%29.98 "HgN/A
10:00 AM79 °FSunny.9 mph26%30.01 "Hg10 mi
9:00 AM73 °FSunny.7 mph31%30.01 "Hg10 mi
8:00 AM68 °FMild.5 mph40%30.01 "HgN/A
7:00 AM61 °FSunny.No wind59%29.95 "Hg10 mi
6:00 AM63 °FSunny.No wind49%29.95 "Hg10 mi
5:00 AM63 °FClear.No wind52%29.95 "Hg10 mi
4:00 AM63 °FClear.No wind52%29.95 "Hg10 mi
3:00 AM63 °FClear.No wind56%29.95 "Hg10 mi
2:00 AM64 °FClear.No wind56%29.95 "Hg10 mi
1:00 AM66 °FClear.No wind52%29.95 "Hg10 mi
12:00 AM50 °FClear.No wind100%29.95 "Hg10 mi
Weather by CustomWeather, © 2014

See weather overviewHow to use our weather pages